QPF
0.00 0.00 0.00 0.00 0.00 0.00 0.00 0.00 0.00 0.00 0.00 0.00 0.00 0.00 0.00 0.00 0.00 0.00 0.00 0.00 0.00 0.00 0.00 0.00 0.00 0.00 0.00 0.00 0.00 0.00 0.00 0.00 0.00 0.00 0.00 0.00 0.00 0.00 0.00 0.00 0.00 0.00 0.00 0.00 0.00 0.00 0.00
0.00 0.00 0.00 0.00 0.00 0.00 0.00 0.00 0.00 0.00 0.00 0.00 0.00 0.00 0.00 0.00 0.00 0.00 0.00 0.00 0.00 0.00 0.00 0.00 0.00 0.00 0.00 0.00 0.00 0.00 0.00 0.00 0.00 0.00 0.00 0.00 0.00 0.00 0.00 0.00 0.00 0.00 0.00 0.00 0.00 0.00 0.00
0.00 0.00 0.00 0.00 0.00 0.00 0.00 0.00 0.00 0.00 0.00 0.00 0.00 0.00 0.00 0.00 0.00 0.00 0.00 0.00 0.00 0.00 0.00 0.00 0.00 0.00 0.00 0.00 0.00 0.00 0.00 0.00 0.00 0.00 0.00 0.00 0.00 0.00 0.00 0.00 0.00 0.00 0.00 0.00 0.00 0.00 0.00
0.00 0.00 0.00 0.00 0.00 0.00 0.00 0.00 0.00 0.00 0.00 0.00 0.00 0.00 0.00 0.00 0.00 0.00 0.00 0.00 0.00 0.00 0.00 0.00 0.00 0.00 0.00 0.00 0.00 0.00 0.00 0.00 0.00 0.00 0.00 0.00 0.00 0.00 0.00 0.00 0.00 0.00 0.00 0.00 0.00 0.00 0.00
0.00 0.00 0.00 0.00 0.00 0.00 0.00 0.00 0.00 0.00 0.00 0.00 0.00 0.00 0.00 0.00 0.00 0.00 0.00 0.00 0.00 0.00 0.00 0.00 0.00 0.00 0.00 0.00 0.00 0.00 0.00 0.00 0.00 0.00 0.00 0.00 0.00 0.00 0.00 0.00 0.00 0.00 0.00 0.00 0.00 0.00 0.00
0.00 0.00 0.00 0.00 0.00 0.00 0.00 0.00 0.00 0.00 0.00 0.00 0.00 0.00 0.00 0.00 0.00 0.00 0.00 0.00 0.00 0.00 0.00 0.00 0.00 0.00 0.00 0.00 0.00 0.00 0.00 0.00 0.00 0.00 0.00 0.00 0.00 0.00 0.00 0.00 0.00 0.00 0.00 0.00 0.00 0.00 0.00
0.00 0.00 0.00 0.00 0.00 0.00 0.00 0.00 0.00 0.00 0.00 0.00 0.00 0.00 0.00 0.00 0.00 0.00 0.00 0.00 0.00 0.00 0.00 0.00 0.00 0.00 0.00 0.00 0.00 0.00 0.00 0.00 0.00 0.00 0.00 0.00 0.00 0.00 0.00 0.00 0.00 0.00 0.00 0.00 0.00 0.00 0.00
0.00 0.00 0.00 0.00 0.00 0.00 0.00 0.00 0.00 0.00 0.00 0.00 0.00 0.00 0.00 0.00 0.00 0.00 0.00 0.00 0.00 0.00 0.00 0.00 0.00 0.00 0.00 0.00 0.00 0.00 0.00 0.00 0.00 0.00 0.00 0.00 0.00 0.00 0.00 0.00 0.00 0.00 0.00 0.00 0.00 0.00 0.00
0.00 0.00 0.00 0.00 0.00 0.00 0.00 0.00 0.00 0.00 0.00 0.00 0.00 0.00 0.00 0.00 0.00 0.00 0.00 0.00 0.00 0.00 0.00 0.00 0.00 0.00 0.00 0.00 0.00 0.00 0.00 0.00 0.00 0.00 0.00 0.00 0.00 0.00 0.00 0.00 0.00 0.00 0.00 0.00 0.00 0.00 0.00
0.00 0.00 0.00 0.00 0.00 0.00 0.00 0.00 0.00 0.00 0.00 0.00 0.00 0.00 0.00 0.00 0.00 0.00 0.00 0.00 0.00 0.00 0.00 0.00 0.00 0.00 0.00 0.00 0.00 0.00 0.00 0.00 0.00 0.00 0.00 0.00 0.00 0.00 0.00 0.00 0.00 0.00 0.00 0.00 0.00 0.00 0.00
0.00 0.00 0.00 0.00 0.00 0.00 0.00 0.00 0.00 0.00 0.00 0.00 0.00 0.00 0.00 0.00 0.00 0.00 0.00 0.00 0.00 0.00 0.00 0.00 0.00 0.00 0.00 0.00 0.00 0.00 0.00 0.00 0.00 0.00 0.00 0.00 0.00 0.00 0.00 0.00 0.00 0.00 0.00 0.00 0.00 0.00 0.00
0.00 0.00 0.00 0.00 0.00 0.00 0.00 0.00 0.00 0.00 0.00 0.00 0.00 0.00 0.00 0.00 0.00 0.00 0.00 0.00 0.00 0.00 0.00 0.00 0.00 0.00 0.00 0.00 0.00 0.00 0.00 0.00 0.00 0.00 0.00 0.00 0.00 0.00 0.00 0.00 0.00 0.00 0.00 0.00 0.00 0.00 0.00
0.00 0.00 0.00 0.00 0.00 0.00 0.00 0.00 0.00 0.00 0.00 0.00 0.00 0.00 0.00 0.00 0.00 0.00 0.00 0.00 0.00 0.00 0.00 0.00 0.00 0.00 0.00 0.00 0.00 0.00 0.00 0.00 0.00 0.00 0.00 0.00 0.00 0.00 0.00 0.00 0.00 0.00 0.00 0.00 0.00 0.00 0.00
0.00 0.00 0.00 0.00 0.00 0.00 0.00 0.00 0.00 0.00 0.00 0.00 0.00 0.00 0.00 0.00 0.00 0.00 0.00 0.00 0.00 0.00 0.00 0.00 0.00 0.00 0.00 0.00 0.00 0.00 0.00 0.00 0.00 0.00 0.00 0.00 0.00 0.00 0.00 0.00 0.00 0.00 0.00 0.00 0.00 0.00 0.00
0.00 0.00 0.00 0.00 0.00 0.00 0.00 0.00 0.00 0.00 0.00 0.00 0.00 0.00 0.00 0.00 0.00 0.00 0.00 0.00 0.00 0.00 0.00 0.00 0.00 0.00 0.00 0.00 0.00 0.00 0.00 0.00 0.00 0.00 0.00 0.00 0.00 0.00 0.00 0.00 0.00 0.00 0.00 0.00 0.00 0.00 0.00
0.00 0.00 0.00 0.00 0.00 0.00 0.00 0.00 0.00 0.00 0.00 0.00 0.00 0.00 0.00 0.00 0.00 0.00 0.00 0.00 0.00 0.00 0.00 0.00 0.00 0.00 0.00 0.00 0.00 0.00 0.00 0.00 0.00 0.00 0.00 0.00 0.00 0.00 0.00 0.00 0.00 0.00 0.00 0.00 0.00 0.00 0.00
0.00 0.00 0.00 0.00 0.00 0.00 0.00 0.00 0.00 0.00 0.00 0.00 0.00 0.00 0.00 0.00 0.00 0.00 0.00 0.00 0.00 0.00 0.00 0.00 0.00 0.00 0.00 0.00 0.00 0.00 0.00 0.00 0.00 0.00 0.00 0.00 0.00 0.00 0.00 0.00 0.00 0.00 0.00 0.00 0.00 0.00 0.00
0.00 0.00 0.00 0.00 0.00 0.00 0.00 0.00 0.00 0.00 0.00 0.00 0.00 0.00 0.00 0.00 0.00 0.00 0.00 0.00 0.00 0.00 0.00 0.00 0.00 0.00 0.00 0.00 0.00 0.00 0.00 0.00 0.00 0.00 0.00 0.00 0.00 0.00 0.00 0.00 0.00 0.00 0.00 0.00 0.00 0.00 0.00
0.00 0.00 0.00 0.00 0.00 0.00 0.00 0.00 0.00 0.00 0.00 0.00 0.00 0.00 0.00 0.00 0.00 0.00 0.00 0.00 0.00 0.00 0.00 0.00 0.00 0.00 0.00 0.00 0.00 0.00 0.00 0.00 0.00 0.00 0.00 0.00 0.00 0.00 0.00 0.00 0.00 0.00 0.00 0.00 0.00 0.00 0.00
0.00 0.00 0.00 0.00 0.00 0.00 0.00 0.00 0.00 0.00 0.00 0.00 0.00 0.00 0.00 0.00 0.00 0.00 0.00 0.00 0.00 0.00 0.00 0.00 0.00 0.00 0.00 0.00 0.00 0.00 0.00 0.00 0.00 0.00 0.00 0.00 0.00 0.00 0.00 0.00 0.00 0.00 0.00 0.00 0.00 0.00 0.00
0.00 0.00 0.00 0.00 0.00 0.00 0.00 0.00 0.00 0.00 0.00 0.00 0.00 0.00 0.00 0.00 0.00 0.00 0.00 0.00 0.00 0.00 0.00 0.00 0.00 0.00 0.00 0.00 0.00 0.00 0.00 0.00 0.00 0.00 0.00 0.00 0.00 0.00 0.00 0.00 0.00 0.00 0.00 0.00 0.00 0.00 0.00
0.00 0.00 0.00 0.00 0.00 0.00 0.00 0.00 0.00 0.00 0.00 0.00 0.00 0.00 0.00 0.00 0.00 0.00 0.00 0.00 0.00 0.00 0.00 0.00 0.00 0.00 0.00 0.00 0.00 0.00 0.00 0.00 0.00 0.00 0.00 0.00 0.00 0.00 0.00 0.00 0.00 0.00 0.00 0.00 0.00 0.00 0.00
0.00 0.00 0.00 0.00 0.00 0.00 0.00 0.00 0.00 0.00 0.00 0.00 0.00 0.00 0.00 0.00 0.00 0.00 0.00 0.00 0.00 0.00 0.00 0.00 0.00 0.00 0.00 0.00 0.00 0.00 0.00 0.00 0.00 0.00 0.00 0.00 0.00 0.00 0.00 0.00 0.00 0.00 0.00 0.00 0.00 0.00 0.00
0.04 0.02 0.00 0.00 0.00 0.00 0.00 0.00 0.00 0.00 0.00 0.00 0.00 0.00 0.00 0.00 0.00 0.00 0.00 0.00 0.00 0.00 0.00 0.00 0.00 0.00 0.00 0.00 0.00 0.00 0.00 0.00 0.00 0.00 0.00 0.00 0.00 0.00 0.00 0.00 0.00 0.00 0.00 0.00 0.00 0.00 0.00
0.06 0.03 0.01 0.00 0.00 0.00 0.00 0.00 0.00 0.00 0.00 0.00 0.00 0.00 0.00 0.00 0.00 0.00 0.00 0.00 0.00 0.00 0.00 0.00 0.00 0.00 0.00 0.00 0.00 0.00 0.00 0.00 0.00 0.00 0.00 0.00 0.00 0.00 0.00 0.00 0.00 0.00 0.00 0.00 0.00 0.00 0.00
0.08 0.05 0.03 0.00 0.00 0.00 0.00 0.00 0.00 0.00 0.00 0.00 0.00 0.00 0.00 0.00 0.00 0.00 0.00 0.00 0.00 0.00 0.00 0.00 0.00 0.00 0.00 0.00 0.00 0.00 0.00 0.00 0.00 0.00 0.00 0.00 0.00 0.00 0.00 0.00 0.00 0.00 0.00 0.00 0.00 0.00 0.00
0.11 0.10 0.07 0.03 0.01 0.00 0.00 0.00 0.00 0.00 0.00 0.00 0.00 0.00 0.00 0.00 0.00 0.00 0.00 0.00 0.00 0.00 0.00 0.00 0.00 0.00 0.00 0.00 0.00 0.00 0.00 0.00 0.00 0.00 0.00 0.00 0.00 0.00 0.00 0.00 0.00 0.00 0.00 0.00 0.00 0.00 0.00
0.07 0.09 0.09 0.06 0.06 0.05 0.02 0.00 0.00 0.01 0.01 0.01 0.00 0.00 0.00 0.00 0.00 0.00 0.00 0.00 0.00 0.00 0.00 0.00 0.01 0.00 0.01 0.00 0.00 0.00 0.00 0.00 0.00 0.00 0.00 0.00 0.00 0.00 0.00 0.00 0.00 0.00 0.00 0.00 0.00 0.00 0.00
0.05 0.07 0.09 0.13 0.16 0.17 0.12 0.05 0.03 0.03 0.04 0.05 0.02 0.01 0.00 0.00 0.00 0.00 0.00 0.00 0.00 0.00 0.00 0.00 0.00 0.00 0.02 0.01 0.01 0.00 0.00 0.00 0.00 0.00 0.00 0.00 0.00 0.00 0.00 0.00 0.00 0.00 0.00 0.00 0.00 0.00 0.00
MSLP
1026.55 1026.46 1026.29 1026.10 1025.90 1025.72 1025.54 1025.43 1025.39 1025.28 1025.12 1024.98 1024.91 1024.90 1024.90 1024.91 1024.88 1024.80 1024.73 1024.61 1024.47 1024.29 1024.10 1023.92 1023.67 1023.35 1022.96 1023.42 1025.28 1025.25 1024.95 1024.46 1023.98 1023.70 1023.47 1023.23 1022.97 1022.98 1023.04 1023.51 1023.57 1023.56 1023.51 1023.10 1022.61 1022.04 1021.42
1026.84 1026.70 1026.51 1026.34 1026.16 1025.97 1025.73 1025.56 1025.49 1025.35 1025.17 1025.03 1024.98 1024.99 1025.01 1024.97 1024.93 1024.85 1024.74 1024.63 1024.59 1024.39 1024.26 1024.11 1024.04 1024.06 1023.44 1023.85 1025.70 1025.44 1024.90 1024.46 1024.30 1023.95 1023.77 1023.59 1023.66 1023.76 1023.57 1023.74 1023.89 1024.03 1023.66 1023.08 1022.69 1022.20 1021.60
1027.06 1026.91 1026.71 1026.55 1026.34 1026.15 1025.95 1025.71 1025.52 1025.40 1025.27 1025.12 1025.06 1025.06 1025.09 1024.99 1024.88 1024.78 1024.67 1024.53 1024.51 1024.43 1024.31 1024.16 1024.15 1024.22 1024.02 1025.54 1025.60 1025.21 1024.84 1024.87 1024.70 1024.26 1023.97 1024.14 1024.11 1023.92 1024.03 1023.92 1024.41 1024.11 1023.59 1022.69 1022.60 1022.11 1021.56
1027.25 1027.07 1026.92 1026.71 1026.44 1026.15 1025.95 1025.73 1025.57 1025.42 1025.33 1025.26 1025.18 1025.10 1024.99 1024.89 1024.77 1024.65 1024.58 1024.48 1024.51 1024.51 1024.41 1024.36 1024.41 1024.25 1024.67 1025.40 1025.27 1025.16 1024.98 1024.69 1024.59 1024.58 1024.45 1024.45 1024.34 1024.25 1024.48 1024.76 1024.69 1024.32 1023.75 1022.79 1022.01 1021.91 1021.36
1027.47 1027.26 1027.07 1026.83 1026.50 1026.19 1025.93 1025.74 1025.58 1025.42 1025.30 1025.26 1025.12 1024.97 1024.85 1024.75 1024.66 1024.54 1024.50 1024.50 1024.53 1024.54 1024.53 1024.55 1024.41 1024.30 1024.87 1025.29 1025.19 1025.33 1025.38 1025.12 1024.90 1024.79 1024.73 1024.59 1024.57 1024.83 1024.62 1024.73 1024.33 1024.87 1024.00 1023.29 1022.27 1022.01 1021.58
1027.58 1027.37 1027.15 1026.88 1026.57 1026.34 1026.01 1025.70 1025.46 1025.24 1025.15 1025.13 1025.09 1025.00 1024.82 1024.70 1024.62 1024.49 1024.47 1024.62 1024.59 1024.65 1024.69 1024.60 1024.71 1024.97 1025.16 1025.68 1025.87 1025.95 1025.86 1025.58 1025.11 1024.96 1024.77 1024.60 1024.66 1024.50 1024.59 1024.76 1025.28 1025.42 1024.80 1023.97 1022.94 1022.11 1021.75
1027.78 1027.50 1027.28 1026.98 1026.69 1026.40 1026.02 1025.67 1025.38 1025.19 1025.01 1024.96 1024.98 1024.94 1024.80 1024.69 1024.55 1024.53 1024.56 1024.71 1025.18 1025.10 1024.91 1025.42 1025.62 1025.53 1025.88 1025.95 1026.03 1026.05 1026.24 1025.62 1025.21 1024.83 1024.65 1025.06 1024.94 1025.30 1025.49 1025.84 1026.14 1026.03 1025.38 1024.26 1023.10 1022.50 1022.17
1028.01 1027.69 1027.42 1027.07 1026.77 1026.47 1026.10 1025.69 1025.29 1025.03 1024.90 1024.89 1024.91 1024.85 1024.76 1024.70 1024.68 1024.65 1024.54 1024.78 1025.53 1025.84 1025.83 1025.98 1025.99 1026.04 1026.27 1026.43 1026.02 1026.11 1026.13 1025.91 1025.63 1025.22 1025.21 1025.22 1025.22 1025.80 1026.05 1026.00 1025.88 1025.53 1025.15 1024.15 1022.91 1022.54 1022.45
1028.21 1027.94 1027.55 1027.24 1026.82 1026.50 1026.15 1025.65 1025.20 1024.97 1024.83 1024.74 1024.68 1024.64 1024.59 1024.55 1024.73 1024.71 1025.02 1025.67 1025.96 1025.81 1025.43 1026.06 1026.22 1026.33 1026.68 1026.65 1026.92 1027.20 1027.37 1027.01 1026.46 1025.90 1025.86 1025.45 1025.85 1026.13 1026.23 1026.10 1025.89 1025.31 1024.97 1024.40 1023.92 1022.76 1022.06
1028.26 1028.15 1027.81 1027.43 1027.03 1026.61 1026.27 1025.78 1025.28 1024.96 1024.80 1024.76 1024.73 1024.58 1024.41 1024.56 1024.89 1025.29 1025.49 1025.96 1025.96 1025.79 1025.34 1026.17 1026.22 1026.85 1026.89 1026.92 1027.43 1027.97 1028.00 1027.91 1027.04 1026.84 1026.58 1026.19 1026.23 1026.42 1026.49 1026.37 1026.35 1025.28 1025.01 1024.66 1023.99 1023.22 1022.10
1028.51 1028.22 1027.98 1027.54 1027.16 1026.73 1026.35 1025.93 1025.46 1025.01 1024.78 1024.77 1024.79 1024.78 1024.75 1024.58 1024.86 1025.38 1025.89 1025.98 1025.92 1025.64 1025.68 1026.42 1026.53 1027.05 1027.13 1027.30 1027.91 1027.79 1028.29 1027.44 1027.74 1027.46 1027.61 1026.85 1026.80 1026.79 1026.51 1026.36 1026.67 1025.69 1025.37 1024.56 1023.80 1023.19 1022.92
1028.81 1028.31 1028.05 1027.62 1027.22 1026.78 1026.43 1026.02 1025.51 1025.03 1024.77 1024.77 1024.86 1024.98 1024.98 1025.04 1025.25 1026.02 1026.06 1026.00 1025.83 1025.69 1025.68 1026.38 1026.71 1027.20 1027.13 1027.51 1027.87 1027.85 1027.89 1028.12 1028.30 1027.82 1027.49 1027.51 1027.82 1027.86 1027.27 1026.67 1026.65 1026.21 1025.42 1024.34 1023.67 1022.93 1022.30
1028.92 1028.46 1028.02 1027.74 1027.36 1026.93 1026.48 1026.09 1025.60 1025.04 1024.73 1024.75 1024.94 1025.06 1024.92 1025.27 1025.84 1026.19 1026.22 1025.84 1025.41 1025.40 1026.25 1026.89 1027.23 1027.45 1027.65 1027.81 1027.89 1028.20 1028.76 1029.39 1029.86 1028.90 1028.18 1027.66 1027.38 1027.60 1027.77 1026.79 1026.69 1026.20 1025.28 1024.18 1023.35 1022.58 1022.40
1029.07 1028.60 1028.19 1027.83 1027.50 1027.10 1026.64 1026.11 1025.58 1025.07 1024.75 1024.75 1024.98 1025.19 1025.74 1025.91 1026.20 1026.26 1026.04 1025.58 1025.54 1026.87 1027.06 1027.77 1027.76 1027.61 1027.73 1028.41 1028.63 1028.78 1029.22 1030.08 1030.89 1030.82 1030.04 1029.47 1027.46 1027.95 1028.13 1028.40 1028.26 1027.86 1027.39 1026.35 1025.30 1023.98 1022.88
1029.17 1028.87 1028.38 1027.98 1027.57 1027.22 1026.79 1026.26 1025.62 1025.18 1024.96 1024.90 1025.15 1025.31 1025.65 1026.31 1026.45 1026.40 1025.86 1025.57 1027.35 1027.89 1028.41 1028.46 1028.03 1027.96 1028.05 1028.68 1029.23 1029.02 1029.77 1030.61 1031.39 1031.61 1031.51 1030.73 1028.98 1028.35 1028.48 1028.63 1029.04 1028.21 1028.47 1028.70 1027.04 1026.10 1024.27
1029.24 1028.98 1028.53 1028.10 1027.72 1027.31 1026.89 1026.40 1025.80 1025.31 1024.96 1025.01 1025.01 1025.34 1025.98 1026.43 1026.41 1026.06 1025.31 1027.14 1028.19 1028.78 1029.16 1029.42 1029.02 1029.15 1028.80 1028.89 1029.22 1029.43 1029.82 1030.82 1031.45 1032.16 1032.24 1032.13 1030.71 1028.37 1028.44 1028.78 1029.25 1029.08 1029.71 1029.09 1027.87 1026.19 1024.11
1029.25 1028.96 1028.68 1028.13 1027.74 1027.38 1026.90 1026.42 1025.80 1025.43 1025.04 1025.13 1025.12 1025.11 1026.10 1026.30 1026.07 1025.14 1026.36 1027.86 1028.66 1029.38 1029.84 1029.96 1029.67 1029.64 1029.73 1029.96 1030.19 1030.12 1030.22 1030.91 1031.56 1032.26 1032.51 1032.54 1032.26 1028.97 1028.75 1029.32 1029.88 1029.79 1029.82 1029.94 1029.32 1028.01 1025.98
1029.24 1028.91 1028.67 1028.33 1027.78 1027.37 1026.95 1026.50 1025.85 1025.39 1025.20 1025.10 1025.12 1025.25 1026.05 1026.28 1025.78 1026.84 1027.54 1028.51 1029.18 1029.64 1030.20 1030.39 1030.47 1030.37 1030.48 1030.70 1030.62 1030.63 1030.69 1031.00 1031.73 1032.08 1032.29 1032.51 1031.99 1029.94 1029.39 1030.46 1030.98 1030.91 1030.73 1030.45 1029.82 1028.67 1027.60
1029.08 1028.92 1028.55 1028.40 1027.98 1027.37 1027.04 1026.59 1026.07 1025.44 1025.29 1025.09 1025.31 1025.73 1025.80 1025.93 1026.38 1027.43 1028.47 1028.90 1029.34 1029.72 1030.07 1030.38 1030.52 1030.78 1031.08 1031.23 1031.40 1031.18 1031.03 1031.27 1031.80 1032.09 1032.22 1032.39 1031.60 1030.04 1028.93 1030.26 1030.35 1030.58 1031.01 1031.13 1030.48 1029.36 1027.45
1028.68 1028.59 1028.40 1028.21 1028.07 1027.51 1027.00 1026.72 1026.13 1025.61 1025.36 1025.49 1025.77 1026.14 1026.26 1026.65 1027.98 1027.56 1028.15 1028.70 1029.19 1029.79 1030.06 1030.34 1030.59 1030.95 1031.23 1031.36 1031.63 1031.49 1031.20 1031.49 1032.09 1032.31 1032.58 1032.50 1031.72 1030.14 1028.94 1028.03 1028.65 1029.42 1029.94 1030.43 1030.01 1029.05 1027.12
1028.27 1028.13 1028.10 1027.94 1027.83 1027.64 1027.03 1026.72 1026.21 1025.74 1025.40 1025.64 1026.66 1028.08 1028.89 1028.20 1028.24 1028.23 1028.29 1028.52 1028.79 1029.38 1030.04 1030.43 1030.72 1030.91 1031.19 1031.42 1031.43 1031.38 1031.44 1031.62 1032.35 1032.94 1033.02 1032.78 1031.61 1030.03 1028.13 1027.19 1027.54 1027.72 1028.21 1029.02 1029.13 1027.89 1026.88
1027.66 1027.61 1027.59 1027.62 1027.55 1027.45 1027.19 1026.80 1026.45 1025.83 1025.47 1026.18 1027.76 1028.53 1029.33 1028.83 1028.77 1028.58 1028.65 1028.65 1028.80 1029.05 1029.71 1030.20 1030.71 1030.66 1031.29 1031.35 1030.78 1031.05 1031.38 1032.00 1031.99 1033.28 1033.43 1033.54 1031.71 1030.23 1027.42 1026.33 1026.39 1026.26 1026.36 1027.06 1027.75 1027.26 1026.28
1026.96 1027.02 1027.00 1027.07 1027.21 1027.20 1027.14 1026.95 1026.77 1026.18 1025.55 1026.82 1028.64 1028.92 1028.64 1029.09 1028.66 1028.51 1028.06 1028.29 1028.64 1029.15 1029.21 1029.62 1030.20 1030.90 1031.38 1030.82 1030.66 1030.81 1031.06 1031.53 1032.09 1032.79 1033.49 1033.76 1032.63 1030.74 1027.39 1026.07 1025.26 1024.27 1023.20 1024.63 1025.26 1025.31 1024.51
1026.07 1026.26 1026.35 1026.41 1026.61 1026.72 1026.79 1026.83 1026.73 1026.80 1026.22 1026.98 1028.17 1028.54 1028.71 1028.62 1028.61 1027.97 1028.00 1028.34 1028.60 1029.04 1029.35 1029.67 1030.47 1031.03 1030.96 1031.15 1031.32 1031.18 1031.20 1031.55 1032.16 1032.88 1033.25 1033.51 1032.94 1031.44 1028.26 1025.51 1023.73 1021.75 1022.26 1022.91 1023.15 1022.93 1023.08
1025.32 1025.33 1025.55 1025.67 1025.82 1026.05 1026.27 1026.50 1026.57 1026.74 1026.87 1026.92 1027.93 1028.10 1028.34 1028.17 1027.90 1027.60 1027.78 1028.03 1028.38 1028.97 1029.55 1029.81 1030.33 1030.96 1031.02 1031.17 1030.83 1030.30 1030.38 1030.87 1031.73 1032.85 1033.52 1033.82 1033.14 1031.44 1029.32 1026.13 1022.18 1020.54 1021.54 1022.20 1022.35 1020.73 1020.36
1024.67 1024.62 1024.63 1024.91 1025.08 1025.31 1025.60 1025.86 1026.19 1026.43 1026.75 1026.92 1027.44 1027.56 1028.00 1028.13 1027.13 1026.86 1027.28 1027.73 1028.23 1028.61 1029.37 1029.88 1030.94 1031.15 1031.27 1030.92 1030.55 1029.98 1028.88 1029.01 1030.49 1032.17 1033.50 1033.87 1033.36 1031.78 1029.74 1026.59 1022.56 1019.65 1020.61 1021.31 1021.72 1020.42 1019.55
1024.04 1023.90 1023.90 1024.02 1024.27 1024.51 1024.78 1025.12 1025.43 1025.89 1026.30 1026.65 1026.98 1027.20 1027.48 1028.02 1026.59 1026.60 1026.65 1026.88 1027.40 1028.14 1028.65 1029.50 1030.60 1031.26 1031.31 1030.67 1030.14 1029.22 1028.24 1028.64 1028.95 1029.79 1031.23 1032.11 1031.88 1030.38 1028.29 1026.02 1021.87 1019.79 1020.99 1021.73 1021.27 1019.31 1019.22
1023.42 1023.27 1023.20 1023.36 1023.46 1023.56 1023.83 1024.25 1024.64 1025.06 1025.67 1026.32 1026.43 1026.56 1026.42 1026.85 1026.12 1025.76 1025.69 1025.99 1026.92 1027.06 1027.46 1029.08 1030.20 1030.73 1031.06 1030.34 1029.23 1028.23 1028.22 1027.91 1028.00 1027.40 1027.78 1027.87 1028.20 1027.86 1027.19 1025.26 1021.67 1020.64 1022.07 1021.51 1019.30 1019.43 1019.52
1022.87 1022.68 1022.71 1022.66 1022.71 1022.77 1022.76 1023.07 1023.46 1023.95 1024.62 1025.53 1026.25 1026.22 1026.52 1026.61 1025.55 1025.04 1024.52 1024.11 1024.00 1024.17 1025.31 1027.46 1027.53 1027.91 1027.83 1028.26 1028.52 1027.94 1027.74 1027.67 1026.41 1025.94 1025.98 1025.60 1023.97 1023.90 1023.57 1020.38 1019.10 1019.59 1019.17 1019.52 1020.05 1020.11 1020.68
Thickness
5606 5604 5604 5603 5602 5601 5600 5598 5597 5595 5594 5594 5594 5595 5594 5594 5594 5594 5593 5592 5590 5589 5587 5585 5583 5580 5578 5568 5551 5546 5541 5537 5532 5527 5520 5512 5503 5489 5471 5447 5426 5407 5399 5398 5402 5409 5423
5604 5602 5601 5600 5599 5597 5595 5595 5594 5594 5593 5593 5594 5593 5593 5593 5593 5592 5591 5590 5588 5586 5584 5581 5578 5573 5574 5563 5545 5541 5538 5534 5528 5524 5515 5506 5491 5475 5458 5436 5413 5395 5384 5384 5382 5389 5398
5602 5601 5599 5597 5596 5594 5593 5593 5593 5593 5593 5592 5592 5592 5591 5592 5592 5591 5590 5589 5587 5585 5582 5579 5575 5570 5568 5550 5543 5539 5535 5529 5523 5518 5510 5496 5482 5466 5446 5428 5400 5386 5376 5381 5377 5377 5379
5601 5599 5597 5596 5595 5594 5593 5593 5593 5592 5592 5591 5591 5591 5592 5591 5591 5591 5589 5588 5585 5582 5579 5576 5572 5568 5561 5548 5543 5538 5533 5529 5520 5512 5502 5489 5477 5460 5438 5414 5395 5381 5380 5372 5380 5372 5373
5600 5598 5596 5595 5594 5594 5594 5593 5592 5591 5591 5590 5591 5591 5591 5591 5590 5590 5588 5585 5582 5579 5576 5573 5571 5567 5559 5546 5541 5534 5528 5523 5515 5507 5496 5486 5471 5452 5437 5412 5411 5376 5375 5368 5372 5369 5365
5599 5597 5595 5595 5594 5593 5593 5593 5593 5592 5591 5590 5589 5589 5589 5589 5589 5588 5585 5582 5579 5576 5573 5570 5566 5565 5553 5541 5534 5528 5522 5517 5511 5502 5494 5482 5468 5459 5445 5420 5396 5368 5366 5364 5363 5370 5364
5596 5596 5595 5594 5593 5593 5593 5593 5593 5592 5591 5590 5588 5587 5587 5586 5587 5585 5583 5580 5580 5579 5572 5564 5558 5554 5545 5539 5532 5526 5516 5515 5510 5506 5497 5477 5469 5440 5427 5405 5381 5369 5365 5364 5372 5370 5360
5594 5594 5594 5594 5594 5593 5593 5593 5594 5593 5592 5590 5588 5586 5585 5583 5583 5583 5580 5581 5573 5571 5568 5555 5551 5547 5539 5533 5537 5527 5517 5516 5507 5503 5492 5485 5466 5444 5426 5411 5397 5385 5370 5379 5384 5374 5363
5591 5591 5592 5592 5593 5593 5592 5594 5594 5593 5592 5590 5587 5585 5583 5582 5580 5580 5576 5571 5565 5564 5577 5558 5548 5544 5537 5533 5523 5515 5505 5499 5497 5498 5483 5486 5465 5443 5424 5416 5399 5394 5383 5380 5371 5375 5376
5589 5588 5588 5590 5590 5591 5591 5592 5593 5593 5591 5588 5585 5583 5582 5579 5578 5573 5572 5566 5564 5563 5582 5567 5556 5542 5535 5527 5523 5506 5498 5495 5496 5489 5477 5477 5459 5443 5420 5411 5401 5408 5394 5386 5378 5376 5388
5586 5586 5585 5587 5588 5589 5588 5589 5590 5591 5590 5586 5582 5579 5577 5576 5574 5574 5568 5564 5563 5565 5590 5562 5550 5535 5529 5529 5514 5515 5497 5501 5485 5480 5467 5483 5457 5442 5441 5429 5401 5411 5391 5385 5383 5381 5372
5583 5584 5583 5584 5586 5587 5587 5588 5589 5590 5588 5584 5580 5575 5572 5571 5569 5564 5563 5562 5564 5582 5579 5558 5542 5530 5536 5522 5515 5510 5504 5494 5481 5477 5472 5462 5441 5430 5430 5424 5408 5399 5391 5395 5391 5391 5412
5581 5582 5582 5582 5583 5585 5585 5585 5587 5588 5586 5582 5578 5573 5571 5567 5567 5561 5560 5564 5587 5590 5561 5555 5538 5529 5524 5519 5519 5506 5487 5472 5473 5493 5481 5470 5465 5442 5427 5442 5418 5409 5420 5462 5455 5436 5428
5579 5580 5581 5580 5580 5582 5583 5584 5586 5587 5585 5581 5575 5571 5563 5560 5558 5557 5559 5578 5587 5554 5552 5528 5526 5530 5532 5509 5507 5504 5500 5497 5455 5453 5463 5458 5513 5445 5427 5418 5407 5396 5391 5417 5442 5441 5432
5577 5577 5578 5578 5577 5578 5579 5582 5585 5585 5583 5578 5572 5566 5561 5554 5554 5554 5568 5581 5560 5540 5525 5525 5533 5541 5539 5514 5501 5508 5490 5481 5456 5442 5460 5463 5482 5443 5429 5417 5404 5417 5406 5367 5381 5355 5399
5574 5574 5575 5575 5575 5575 5576 5579 5582 5583 5582 5577 5572 5566 5560 5553 5553 5557 5582 5550 5535 5522 5518 5514 5533 5514 5531 5522 5516 5507 5497 5474 5464 5445 5433 5426 5449 5449 5438 5425 5409 5411 5383 5410 5401 5435 5452
5572 5572 5571 5572 5572 5573 5574 5576 5580 5581 5581 5577 5573 5577 5559 5554 5555 5576 5567 5543 5529 5517 5512 5517 5519 5515 5511 5505 5487 5494 5494 5475 5458 5443 5432 5416 5410 5474 5443 5429 5418 5423 5418 5375 5372 5369 5426
5569 5570 5569 5568 5569 5569 5571 5573 5577 5580 5579 5577 5574 5582 5560 5556 5577 5548 5550 5532 5520 5516 5507 5506 5503 5503 5499 5484 5488 5487 5489 5479 5459 5451 5446 5426 5422 5452 5455 5394 5384 5383 5397 5383 5423 5413 5363
5567 5566 5567 5566 5566 5567 5568 5571 5574 5577 5577 5576 5577 5571 5561 5558 5574 5554 5527 5525 5519 5515 5512 5506 5504 5496 5487 5483 5485 5472 5476 5468 5458 5452 5443 5428 5437 5478 5484 5421 5404 5401 5371 5349 5352 5365 5402
5566 5565 5565 5565 5563 5565 5566 5568 5572 5574 5575 5572 5574 5578 5567 5552 5532 5547 5538 5533 5528 5509 5509 5503 5499 5493 5486 5484 5472 5471 5476 5465 5452 5448 5440 5432 5423 5452 5505 5490 5443 5425 5396 5368 5383 5409 5415
5566 5566 5564 5565 5562 5561 5564 5565 5568 5571 5572 5569 5559 5548 5530 5558 5546 5533 5528 5524 5530 5525 5503 5498 5496 5495 5490 5482 5472 5470 5467 5463 5446 5434 5427 5427 5438 5434 5444 5451 5441 5434 5428 5385 5381 5409 5423
5567 5566 5564 5563 5562 5560 5561 5562 5562 5567 5568 5560 5563 5551 5522 5529 5523 5529 5524 5525 5526 5523 5510 5503 5493 5502 5474 5483 5494 5485 5461 5446 5464 5423 5425 5407 5448 5426 5453 5447 5436 5432 5438 5426 5398 5406 5393
5566 5566 5564 5562 5561 5558 5558 5558 5556 5560 5562 5552 5530 5528 5537 5519 5526 5531 5544 5529 5523 5511 5514 5507 5499 5488 5466 5478 5481 5473 5465 5454 5445 5437 5420 5408 5420 5429 5483 5449 5447 5477 5469 5440 5417 5407 5422
5567 5566 5564 5562 5559 5558 5555 5554 5553 5551 5554 5547 5535 5531 5532 5546 5524 5534 5521 5515 5515 5506 5511 5498 5485 5487 5481 5462 5458 5455 5449 5441 5434 5422 5419 5398 5399 5397 5453 5465 5521 5489 5453 5446 5441 5432 5415
5566 5566 5564 5561 5559 5557 5554 5551 5549 5546 5545 5542 5531 5531 5521 5536 5530 5530 5517 5516 5505 5496 5496 5491 5483 5470 5463 5461 5469 5473 5467 5449 5430 5411 5401 5387 5399 5420 5438 5451 5500 5486 5445 5443 5443 5485 5451
5565 5564 5564 5561 5558 5555 5552 5549 5545 5543 5540 5537 5531 5528 5520 5517 5533 5527 5522 5511 5514 5503 5494 5481 5462 5457 5455 5462 5465 5484 5531 5491 5470 5412 5387 5376 5370 5397 5388 5450 5508 5514 5453 5441 5435 5477 5448
5562 5562 5561 5560 5557 5554 5551 5548 5544 5539 5536 5532 5528 5524 5519 5511 5524 5520 5518 5518 5499 5491 5498 5476 5460 5453 5445 5457 5466 5480 5506 5447 5494 5464 5403 5396 5388 5400 5420 5434 5477 5479 5442 5434 5467 5502 5444
5560 5559 5558 5557 5555 5554 5550 5546 5542 5538 5532 5527 5526 5522 5522 5512 5521 5517 5517 5503 5488 5492 5501 5469 5465 5452 5440 5448 5460 5478 5460 5463 5447 5458 5430 5438 5416 5405 5391 5406 5458 5436 5422 5453 5470 5430 5435
5556 5555 5554 5554 5552 5551 5550 5547 5543 5539 5532 5524 5520 5517 5511 5509 5522 5518 5519 5518 5517 5510 5496 5465 5483 5468 5467 5462 5438 5438 5442 5413 5458 5490 5433 5450 5472 5470 5449 5485 5459 5443 5454 5436 5421 5429 5413